GW6152 Weather Reports


time (UTC)temp
C
wind
direction
speed
KPH
gust
KPH
rain 1hr
cm
rain 24hr
cm
rain mn
cm
humidity
%
barometer
mb
20260906082447 23 95 1.6 4.8 0.00 0.00 0.00 91 1007.3
20260906081943 23 89 4.8 8.0 0.00 0.00 0.00 93 1007.6
20260906081438 23 10 0.0 0.0 0.00 0.00 0.00 93 1007.9
20260906080934 23 66 11.3 11.3 0.00 0.00 0.00 94 1007.9
20260906080431 23 31 0.0 0.0 0.00 0.00 0.00 95 1007.9
20260906075930 23 46 4.8 8.0 0.00 0.00 0.00 95 1007.9
20260906075425 24 359 6.4 8.0 0.00 0.00 0.00 96 1008.3
20260906074921 24 9 4.8 8.0 0.00 0.00 0.00 96 1008.3
20260906074420 24 61 1.6 4.8 0.00 0.00 0.00 96 1008.3
20260906073920 24 79 4.8 11.3 0.00 0.00 0.00 96 1008.3
20260906073414 24 39 6.4 8.0 0.00 0.00 0.00 97 1008.6
20260906072911 24 104 1.6 4.8 0.00 0.00 0.00 97 1008.3
20260906072406 24 8 8.0 11.3 0.00 0.00 0.00 97 1008.6
20260906071902 24 31 0.0 0.0 0.00 0.00 0.00 98 1008.3
20260906071357 24 348 0.0 0.0 0.00 0.00 0.00 98 1007.9
20260906070853 24 101 0.0 0.0 0.00 0.00 0.00 98 1007.6
20260906070349 24 45 0.0 0.0 0.00 0.00 0.00 98 1007.9
20260906065844 24 8 0.0 0.0 0.00 0.00 0.00 98 1007.9
20260906065338 24 44 0.0 0.0 0.00 0.00 0.00 98 1007.9
20260906064834 24 96 0.0 0.0 0.00 0.00 0.00 98 1007.9
20260906064331 24 80 0.0 0.0 0.00 0.00 0.00 98 1007.9
20260906063830 24 124 0.0 0.0 0.00 0.00 0.00 98 1007.9
20260906063326 24 78 0.0 0.0 0.00 0.00 0.00 98 1007.9
20260906062821 24 128 0.0 0.0 0.00 0.00 0.00 98 1007.6
20260906062320 23 94 0.0 0.0 0.00 0.00 0.00 98 1007.6
20260906061816 23 145 0.0 0.0 0.00 0.00 0.00 98 1007.9
20260906061312 23 114 0.0 0.0 0.00 0.00 0.00 98 1007.6
20260906060806 23 142 0.0 0.0 0.00 0.00 0.00 98 1007.9
20260906060304 23 172 0.0 0.0 0.00 0.00 0.00 98 1007.9
20260906055800 23 1 0.0 0.0 0.00 0.00 0.00 98 1007.9
20260906055255 23 340 0.0 0.0 0.00 0.00 0.00 98 1007.9
20260906054750 23 52 0.0 0.0 0.00 0.00 0.00 98 1007.9
20260906054245 23 9 0.0 0.0 0.00 0.00 0.00 98 1007.9
20260906053742 23 2 0.0 0.0 0.00 0.00 0.00 98 1007.6
20260906053238 23 34 0.0 0.0 0.00 0.00 0.00 98 1007.6
20260906052732 23 86 0.0 0.0 0.00 0.00 0.00 98 1007.6
20260906052228 23 100 0.0 0.0 0.00 0.00 0.00 98 1007.6
20260906051725 23 299 0.0 0.0 0.00 0.00 0.00 98 1007.3
20260906051225 23 295 0.0 0.0 0.00 0.00 0.00 98 1007.3
20260906050720 23 291 0.0 0.0 0.00 0.00 0.00 98 1007.6
20260906050215 23 159 0.0 0.0 0.00 0.00 0.00 98 1007.6
20260906045713 23 196 0.0 0.0 0.00 0.00 0.00 98 1007.6
20260906045209 23 166 0.0 0.0 0.00 0.00 0.00 98 1007.6
20260906044705 23 190 0.0 0.0 0.00 0.00 0.00 98 1007.6
20260906044200 23 154 0.0 0.0 0.00 0.00 0.00 98 1007.6
20260906043656 23 156 0.0 0.0 0.00 0.00 0.00 97 1007.9
20260906043151 24 53 0.0 0.0 0.00 0.00 0.00 97 1007.9
20260906042651 24 118 0.0 0.0 0.00 0.00 0.00 97 1007.9
20260906042150 24 52 0.0 0.0 0.00 0.00 0.00 97 1007.9
20260906041646 24 109 0.0 0.0 0.00 0.00 0.00 97 1007.6
20260906041141 24 122 0.0 0.0 0.00 0.00 0.00 97 1007.9
20260906040637 24 20 0.0 0.0 0.00 0.00 0.00 97 1007.9
20260906040132 24 31 0.0 0.0 0.00 0.00 0.00 97 1007.9
20260906035627 25 115 0.0 0.0 0.00 0.00 0.00 97 1007.9
20260906035123 25 109 0.0 0.0 0.00 0.00 0.00 97 1007.9
20260906034623 25 109 0.0 0.0 0.00 0.00 0.00 97 1007.9
20260906034118 25 107 0.0 0.0 0.00 0.00 0.00 97 1008.3
20260906033614 25 19 0.0 0.0 0.00 0.00 0.00 96 1007.9
20260906033108 25 17 0.0 0.0 0.00 0.00 0.00 96 1007.9
20260906032606 25 15 0.0 0.0 0.00 0.00 0.00 96 1007.9
20260906032105 25 220 0.0 0.0 0.00 0.00 0.00 96 1007.6
20260906031601 25 79 0.0 0.0 0.00 0.00 0.00 96 1007.9
20260906031056 25 134 0.0 0.0 0.00 0.00 0.00 95 1007.9
20260906030555 25 137 0.0 0.0 0.00 0.00 0.00 95 1007.6
20260906030055 25 189 0.0 0.0 0.00 0.00 0.00 95 1007.6
20260906025555 25 205 0.0 0.0 0.00 0.00 0.00 95 1007.3
20260906025054 25 245 0.0 0.0 0.00 0.00 0.00 95 1007.6
20260906024549 26 23 0.0 0.0 0.00 0.00 0.00 94 1007.6
20260906024049 26 9 0.0 0.0 0.00 0.00 0.00 94 1007.3
20260906023545 26 80 0.0 0.0 0.00 0.00 0.00 93 1007.3
20260906023039 26 254 0.0 0.0 0.00 0.00 0.00 93 1007.3
20260906022535 26 10 0.0 0.0 0.00 0.00 0.00 92 1007.3
20260906022030 26 330 0.0 0.0 0.00 0.00 0.00 92 1007.3
20260906021526 26 218 0.0 0.0 0.00 0.00 0.00 91 1006.9
20260906021020 26 55 0.0 0.0 0.00 0.00 0.00 90 1007.3
20260906020519 26 143 0.0 0.0 0.00 0.00 0.00 89 1007.3
20260906020019 26 156 0.0 0.0 0.00 0.00 0.00 89 1007.3
20260906015518 26 131 0.0 0.0 0.00 0.00 0.00 90 1007.6
20260906015018 26 160 0.0 0.0 0.00 0.00 0.00 90 1007.3
20260906014513 26 121 0.0 0.0 0.00 0.00 0.00 90 1007.3
20260906014009 26 95 0.0 0.0 0.00 0.00 0.00 91 1007.3
20260906013504 26 122 0.0 0.0 0.00 0.00 0.00 91 1006.9
20260906012959 26 114 0.0 0.0 0.00 0.00 0.00 92 1006.9
20260906012454 26 118 0.0 0.0 0.00 0.00 0.00 92 1006.9
20260906011953 26 147 0.0 0.0 0.00 0.00 0.00 91 1006.9
20260906011449 27 153 0.0 0.0 0.00 0.00 0.00 91 1006.6
20260906010944 27 122 0.0 0.0 0.00 0.00 0.00 91 1006.2
20260906010440 27 89 0.0 0.0 0.00 0.00 0.00 90 1006.6
20260906005936 27 106 0.0 0.0 0.00 0.00 0.00 89 1006.6
20260906005435 27 145 0.0 0.0 0.00 0.00 0.00 89 1006.2
20260906004934 27 105 0.0 0.0 0.00 0.00 0.00 88 1006.2
20260906004428 28 126 0.0 0.0 0.00 0.00 0.00 86 1006.2
20260906003924 28 229 0.0 0.0 0.00 0.00 0.00 85 1006.2
20260906003419 28 171 0.0 0.0 0.00 0.00 0.00 83 1006.2
20260906002915 28 152 0.0 0.0 0.00 0.00 0.00 83 1006.6
20260906002414 28 175 0.0 0.0 0.00 0.00 0.00 84 1006.6
20260906001915 29 240 0.0 0.0 0.00 0.00 0.00 83 1006.6
20260906001410 29 160 0.0 0.0 0.00 0.00 0.00 82 1006.6
20260906000911 30 206 0.0 0.0 0.00 0.00 0.00 81 1006.2
20260906000406 30 279 0.0 0.0 0.00 0.00 0.00 80 1006.6
20260905235901 30 58 0.0 0.0 0.00 0.00 0.00 79 1006.2
20260905235355 30 209 0.0 4.8 0.00 0.00 0.00 78 1006.6
20260905234850 30 94 0.0 0.0 0.00 0.00 0.00 76 1006.6
20260905234345 30 56 0.0 0.0 0.00 0.00 0.00 77 1006.6
20260905233840 30 130 0.0 0.0 0.00 0.00 0.00 75 1006.6
20260905233335 30 244 0.0 0.0 0.00 0.00 0.00 73 1006.6
20260905232834 30 243 0.0 0.0 0.00 0.00 0.00 72 1006.6
20260905232331 30 89 0.0 0.0 0.00 0.00 0.00 72 1006.2
20260905231826 30 97 0.0 0.0 0.00 0.00 0.00 72 1006.6
20260905231321 31 176 0.0 0.0 0.00 0.00 0.00 72 1006.6
20260905230818 31 225 0.0 0.0 0.00 0.00 0.00 71 1006.2
20260905230315 31 9 0.0 0.0 0.00 0.00 0.00 74 1006.2
20260905225815 31 251 0.0 0.0 0.00 0.00 0.00 70 1006.2
20260905225310 31 183 0.0 0.0 0.00 0.00 0.00 67 1006.2
20260905224810 30 99 0.0 4.8 0.00 0.00 0.00 65 1006.2
20260905224305 30 39 0.0 0.0 0.00 0.00 0.00 66 1006.6
20260905223800 30 36 4.8 8.0 0.00 0.00 0.00 66 1006.2
20260905223258 30 133 0.0 0.0 0.00 0.00 0.00 67 1006.2
20260905222753 31 283 0.0 0.0 0.00 0.00 0.00 68 1006.2
20260905222252 31 147 1.6 4.8 0.00 0.00 0.00 69 1006.2
20260905221748 31 120 0.0 0.0 0.00 0.00 0.00 70 1006.2
20260905221244 32 80 16.1 19.3 0.00 0.00 0.00 68 1006.6
20260905220740 33 112 12.9 16.1 0.00 0.00 0.00 66 1006.6
20260905220236 34 88 11.3 16.1 0.00 0.00 0.00 66 1006.6
20260905215735 35 71 9.7 16.1 0.00 0.00 0.00 65 1006.6
20260905215231 36 82 11.3 16.1 0.00 0.00 0.00 63 1006.2
20260905214727 37 142 9.7 11.3 0.00 0.00 0.00 61 1006.6
20260905214222 37 108 0.0 4.8 0.00 0.00 0.00 56 1006.6
20260905213718 37 74 6.4 8.0 0.00 0.00 0.00 55 1005.9
20260905213214 38 178 0.0 0.0 0.00 0.00 0.00 56 1005.9
20260905212708 38 296 0.0 0.0 0.00 0.00 0.00 55 1005.9
20260905212208 38 184 0.0 0.0 0.00 0.00 0.00 55 1005.9
20260905211702 38 261 0.0 0.0 0.00 0.00 0.00 51 1005.9
20260905211158 38 307 0.0 0.0 0.00 0.00 0.00 54 1005.9
20260905210654 38 140 0.0 0.0 0.00 0.00 0.00 53 1005.9
20260905210154 38 164 0.0 0.0 0.00 0.00 0.00 53 1005.9
20260905205653 38 66 0.0 0.0 0.00 0.00 0.00 54 1005.9
20260905205153 38 20 0.0 0.0 0.00 0.00 0.00 53 1005.9
20260905204652 38 145 0.0 0.0 0.00 0.00 0.00 55 1006.2
20260905204148 38 165 0.0 0.0 0.00 0.00 0.00 55 1006.2
20260905203642 38 76 0.0 0.0 0.00 0.00 0.00 54 1006.2
20260905203138 38 340 0.0 0.0 0.00 0.00 0.00 52 1006.2
20260905202633 38 199 0.0 0.0 0.00 0.00 0.00 54 1006.2
20260905202128 38 246 0.0 0.0 0.00 0.00 0.00 57 1006.2
20260905201624 38 251 0.0 0.0 0.00 0.00 0.00 56 1006.2
20260905201123 38 347 0.0 0.0 0.00 0.00 0.00 53 1006.6
20260905200619 37 217 0.0 0.0 0.00 0.00 0.00 54 1006.6
20260905200115 37 358 0.0 0.0 0.00 0.00 0.00 54 1006.6
20260905195613 37 51 0.0 0.0 0.00 0.00 0.00 54 1006.6
20260905195109 37 52 1.6 4.8 0.00 0.00 0.00 54 1006.9
20260905194608 37 226 3.2 4.8 0.00 0.00 0.00 56 1006.9
20260905194108 37 129 0.0 0.0 0.00 0.00 0.00 54 1007.3
20260905193603 37 64 0.0 0.0 0.00 0.00 0.00 62 1007.3
20260905193058 37 251 0.0 4.8 0.00 0.00 0.00 60 1007.3
20260905192553 38 271 0.0 0.0 0.00 0.00 0.00 63 1006.9
20260905192049 37 25 0.0 0.0 0.00 0.00 0.00 58 1006.9
20260905191548 37 254 0.0 0.0 0.00 0.00 0.00 55 1007.3
20260905191042 37 29 9.7 11.3 0.00 0.00 0.00 54 1007.3
20260905190540 37 46 4.8 8.0 0.00 0.00 0.00 54 1007.3
20260905190039 37 318 0.0 0.0 0.00 0.00 0.00 56 1007.6
20260905185539 37 116 0.0 0.0 0.00 0.00 0.00 56 1007.6
20260905185038 37 210 0.0 0.0 0.00 0.00 0.00 58 1007.6
20260905184539 36 275 0.0 0.0 0.00 0.00 0.00 62 1007.6
20260905184038 36 139 0.0 0.0 0.00 0.00 0.00 58 1007.9
20260905183537 36 318 0.0 4.8 0.00 0.00 0.00 59 1007.9
20260905183033 36 64 0.0 0.0 0.00 0.00 0.00 56 1008.3
20260905182533 36 137 1.6 4.8 0.00 0.00 0.00 57 1007.9
20260905182032 36 146 0.0 0.0 0.00 0.00 0.00 57 1007.9
20260905181527 36 93 0.0 0.0 0.00 0.00 0.00 59 1008.3
20260905181026 36 4 0.0 4.8 0.00 0.00 0.00 63 1008.3
20260905180521 36 206 0.0 0.0 0.00 0.00 0.00 64 1008.3
20260905180017 36 257 0.0 0.0 0.00 0.00 0.00 64 1008.3
20260905175516 36 136 0.0 0.0 0.00 0.00 0.00 63 1008.3
20260905175012 36 137 0.0 0.0 0.00 0.00 0.00 60 1008.6
20260905174507 36 205 0.0 0.0 0.00 0.00 0.00 61 1008.3
20260905174002 36 104 0.0 0.0 0.00 0.00 0.00 62 1008.6
20260905173459 36 321 0.0 0.0 0.00 0.00 0.00 67 1008.6
20260905172954 36 341 3.2 4.8 0.00 0.00 0.00 65 1008.3
20260905172452 36 225 0.0 0.0 0.00 0.00 0.00 68 1008.6
20260905171948 36 107 0.0 0.0 0.00 0.00 0.00 62 1008.6
20260905171444 35 39 0.0 0.0 0.00 0.00 0.00 62 1008.6
20260905170940 35 156 0.0 0.0 0.00 0.00 0.00 64 1008.6
20260905170436 35 87 0.0 0.0 0.00 0.00 0.00 64 1008.6
20260905165936 35 96 0.0 0.0 0.00 0.00 0.00 63 1008.6
20260905165431 35 68 0.0 4.8 0.00 0.00 0.00 66 1009.0
20260905164926 35 350 0.0 4.8 0.00 0.00 0.00 75 1009.0
20260905164425 35 56 6.4 8.0 0.00 0.00 0.00 67 1009.0
20260905163920 35 204 0.0 0.0 0.00 0.00 0.00 71 1009.0
20260905163417 35 309 0.0 0.0 0.00 0.00 0.00 68 1009.0
20260905162913 35 208 0.0 0.0 0.00 0.00 0.00 69 1009.3
20260905162408 35 278 0.0 0.0 0.00 0.00 0.00 68 1009.3
20260905161903 34 74 1.6 4.8 0.00 0.00 0.00 67 1009.3
20260905161401 34 349 0.0 0.0 0.00 0.00 0.00 72 1009.3
20260905160900 34 110 0.0 0.0 0.00 0.00 0.00 69 1009.6
20260905160354 33 162 0.0 0.0 0.00 0.00 0.00 70 1009.6
20260905155849 33 271 0.0 0.0 0.00 0.00 0.00 79 1009.6
20260905155348 33 135 0.0 0.0 0.00 0.00 0.00 75 1009.6
20260905154847 33 279 0.0 4.8 0.00 0.00 0.00 74 1009.6
20260905154343 33 47 0.0 0.0 0.00 0.00 0.00 75 1009.6
20260905153838 33 15 0.0 0.0 0.00 0.00 0.00 75 1009.6
20260905153335 33 82 0.0 4.8 0.00 0.00 0.00 76 1010.0
20260905152835 33 65 0.0 0.0 0.00 0.00 0.00 79 1009.6
20260905152334 32 255 0.0 0.0 0.00 0.00 0.00 80 1010.0
20260905151829 32 99 0.0 0.0 0.00 0.00 0.00 79 1009.6
20260905151325 32 10 0.0 0.0 0.00 0.00 0.00 76 1009.6
20260905150824 32 97 0.0 0.0 0.00 0.00 0.00 78 1009.3
20260905150319 31 124 0.0 0.0 0.00 0.00 0.00 81 1009.6
20260905145817 31 214 0.0 0.0 0.00 0.00 0.00 80 1009.6
20260905145316 31 2 0.0 0.0 0.00 0.00 0.00 81 1009.6
20260905144815 31 341 0.0 0.0 0.00 0.00 0.00 82 1009.6
20260905144311 31 62 0.0 0.0 0.00 0.00 0.00 82 1010.0
20260905143810 30 10 0.0 4.8 0.00 0.00 0.00 83 1010.0
20260905143304 30 29 0.0 0.0 0.00 0.00 0.00 85 1010.0
20260905142803 30 37 0.0 0.0 0.00 0.00 0.00 85 1010.0
20260905142257 30 25 0.0 0.0 0.00 0.00 0.00 85 1010.0
20260905141754 29 75 0.0 0.0 0.00 0.00 0.00 84 1010.0
20260905141249 28 214 0.0 0.0 0.00 0.00 0.00 88 1010.0
20260905140745 27 101 0.0 0.0 0.00 0.00 0.00 89 1010.0
20260905140244 27 163 0.0 0.0 0.00 0.00 0.00 92 1010.3
20260905135743 26 132 0.0 0.0 0.00 0.00 0.00 95 1010.0
20260905135240 26 92 0.0 0.0 0.00 0.00 0.00 97 1010.0
20260905134739 26 169 0.0 0.0 0.00 0.00 0.00 98 1010.3
20260905134239 25 89 0.0 0.0 0.00 0.00 0.00 99 1010.3
20260905133733 25 119 0.0 0.0 0.00 0.00 0.00 99 1010.3
20260905133228 25 91 0.0 0.0 0.00 0.00 0.00 99 1010.3
20260905132727 25 118 0.0 0.0 0.00 0.00 0.00 99 1010.3
20260905132223 24 57 0.0 0.0 0.00 0.00 0.00 99 1010.3
20260905131718 24 88 0.0 0.0 0.00 0.00 0.00 99 1010.3
20260905131213 24 127 0.0 0.0 0.00 0.00 0.00 99 1010.3
20260905130708 23 60 0.0 0.0 0.00 0.00 0.00 99 1010.3
20260905130207 23 84 0.0 0.0 0.00 0.00 0.00 99 1010.3
20260905125702 23 68 0.0 0.0 0.00 0.00 0.00 99 1010.7
20260905125157 23 80 0.0 0.0 0.00 0.00 0.00 99 1010.7
20260905124654 23 15 0.0 0.0 0.00 0.00 0.00 99 1010.3
20260905124149 23 65 0.0 0.0 0.00 0.00 0.00 99 1010.7
20260905123644 23 40 0.0 0.0 0.00 0.00 0.00 99 1010.3
20260905123142 22 67 0.0 0.0 0.00 0.00 0.00 99 1010.3
20260905122641 22 16 0.0 0.0 0.00 0.00 0.00 99 1010.3
20260905122137 22 36 0.0 0.0 0.00 0.00 0.00 99 1010.3
20260905121636 22 52 0.0 0.0 0.00 0.00 0.00 99 1010.3
20260905121132 22 89 0.0 0.0 0.00 0.00 0.00 99 1010.0
20260905120631 22 93 0.0 0.0 0.00 0.00 0.00 99 1010.3
20260905120126 22 94 0.0 0.0 0.00 0.00 0.00 99 1010.3
20260905115625 22 105 0.0 0.0 0.00 0.00 0.00 99 1010.0
20260905115121 22 99 0.0 0.0 0.00 0.00 0.00 99 1010.0
20260905114620 22 78 0.0 0.0 0.00 0.00 0.00 99 1010.0
20260905114119 22 33 0.0 0.0 0.00 0.00 0.00 99 1009.6
20260905113614 22 61 0.0 0.0 0.00 0.00 0.00 99 1009.6
20260905113110 22 98 0.0 0.0 0.00 0.00 0.00 99 1009.6
20260905112604 22 126 0.0 0.0 0.00 0.00 0.00 99 1009.6
20260905112100 22 90 0.0 0.0 0.00 0.00 0.00 99 1009.3
20260905111554 22 34 0.0 0.0 0.00 0.00 0.00 99 1009.3
20260905111054 22 37 0.0 0.0 0.00 0.00 0.00 99 1009.3
20260905110553 22 45 0.0 0.0 0.00 0.00 0.00 99 1009.3
20260905110048 22 119 0.0 0.0 0.00 0.00 0.00 99 1009.3
20260905105548 22 161 0.0 0.0 0.00 0.00 0.00 99 1009.0
20260905105047 22 33 0.0 0.0 0.00 0.00 0.00 99 1009.0
20260905104544 22 95 0.0 0.0 0.00 0.00 0.00 99 1009.0
20260905104043 22 122 0.0 0.0 0.00 0.00 0.00 99 1009.0
20260905103538 22 57 0.0 0.0 0.00 0.00 0.00 99 1009.0
20260905103035 22 56 0.0 0.0 0.00 0.00 0.00 99 1009.0
20260905102530 22 44 0.0 0.0 0.00 0.00 0.00 99 1009.0
20260905102026 22 68 0.0 0.0 0.00 0.00 0.00 99 1008.6
20260905101525 22 120 0.0 0.0 0.00 0.00 0.00 99 1008.6
20260905101023 22 115 0.0 0.0 0.00 0.00 0.00 99 1008.6
20260905100520 22 76 0.0 0.0 0.00 0.00 0.00 99 1009.0
20260905100019 22 84 0.0 0.0 0.00 0.00 0.00 99 1009.0
20260905095514 22 126 0.0 0.0 0.00 0.00 0.00 99 1009.0
20260905095009 22 120 0.0 0.0 0.00 0.00 0.00 99 1009.0
20260905094504 22 125 0.0 0.0 0.00 0.00 0.00 99 1009.0
20260905094003 22 151 0.0 0.0 0.00 0.00 0.00 99 1009.0
20260905093458 22 70 0.0 0.0 0.00 0.00 0.00 99 1008.6
20260905092954 22 100 0.0 0.0 0.00 0.00 0.00 99 1008.6
20260905092449 22 110 0.0 0.0 0.00 0.00 0.00 99 1009.0
20260905091945 22 89 0.0 0.0 0.00 0.00 0.00 99 1008.6
20260905091444 22 71 0.0 0.0 0.00 0.00 0.00 99 1009.0
20260905090944 22 70 0.0 0.0 0.00 0.00 0.00 99 1008.6
20260905090439 22 120 0.0 0.0 0.00 0.00 0.00 99 1008.6
20260905085938 22 148 0.0 0.0 0.00 0.00 0.00 99 1008.6
20260905085438 22 195 0.0 0.0 0.00 0.00 0.00 99 1008.6
20260905084934 22 73 0.0 0.0 0.00 0.00 0.00 99 1008.6
20260905084433 22 89 0.0 0.0 0.00 0.00 0.00 99 1008.6
20260905083928 22 129 0.0 0.0 0.00 0.00 0.00 99 1008.6
20260905083424 22 98 0.0 0.0 0.00 0.00 0.00 99 1008.6
20260905082919 22 77 0.0 0.0 0.00 0.00 0.00 99 1008.6